Torna al catalogo

FENGYUN 1C DEB

AttivoSSO
NORAD 31507·DEBRIS·🇨🇳 China

Lanciato May 10, 1999 da Taiyuan Satellite Launch Center

Loading…

Prossimi Passaggi (prossime 24 ore)

TLE

AggiornatoSource: Space-Track

Epoca: Sep 14, 2026, 08:10 UTC

1 31507U 99025BWW 26257.34058051  .00000944  00000-0  22063-3 0  9992
2 31507  98.1669 287.7887 0113824 308.2138 114.9708 14.53143103 20195

Traccia FENGYUN 1C DEB in tempo reale con AllMySat

Download on the App Store